This is the latest recevied weather packets stored in our database for station/object WD9U. If no packets are shown the sender has not sent any weather packets the latest 10 day(s).
| Time | Temp. | Humidity | Pressure | Rain* | Wind** | Luminosity | Snow |
|---|---|---|---|---|---|---|---|
| 1778033113 | 5.56° C | 45% | 1012.1 hPa | 0 mm | - | 0 W/m² | - |
| 1778032871 | 5.56° C | 45% | 1012.1 hPa | 0 mm | - | 0 W/m² | - |
| 1778032511 | 5.56° C | 46% | 1012.1 hPa | 0 mm | - | 0 W/m² | - |
| 1778032151 | 5.56° C | 45% | 1012 hPa | 0 mm | - | 0 W/m² | - |
| 1778031913 | 5.56° C | 46% | 1012 hPa | 0 mm | - | 0 W/m² | - |
| 1778031791 | 5.56° C | 45% | 1011.9 hPa | 0 mm | - | 0 W/m² | - |
| 1778031431 | 5.56° C | 44% | 1011.8 hPa | 0 mm | - | 0 W/m² | - |
| 1778031070 | 5.56° C | 45% | 1011.8 hPa | 0 mm | - | 0 W/m² | - |
| 1778030709 | 5.56° C | 45% | 1011.8 hPa | 0 mm | - | 1 W/m² | - |
| 1778030349 | 5.56° C | 45% | 1011.7 hPa | 0 mm | - | 2 W/m² | - |
| 1778029989 | 5.56° C | 44% | 1011.6 hPa | 0 mm | - | 4 W/m² | - |
| 1778029629 | 5.56° C | 43% | 1011.6 hPa | 0 mm | - | 6 W/m² | - |
| 1778029511 | 5.56° C | 44% | 1011.6 hPa | 0 mm | - | 6 W/m² | - |
| 1778029269 | 5.56° C | 44% | 1011.7 hPa | 0 mm | - | 9 W/m² | - |
| 1778028909 | 5.56° C | 44% | 1011.5 hPa | 0 mm | - | 14 W/m² | - |
| 1778028549 | 5.56° C | 43% | 1011.5 hPa | 0 mm | - | 24 W/m² | - |
| 1778028311 | 6.11° C | 43% | 1011.5 hPa | 0 mm | - | 35 W/m² | - |
| 1778028189 | 6.11° C | 43% | 1011.3 hPa | 0 mm | - | 40 W/m² | - |
| 1778027829 | 6.11° C | 44% | 1011.3 hPa | 0 mm | - | 58 W/m² | - |
| 1778027468 | 6.11° C | 43% | 1011.3 hPa | 0 mm | - | 50 W/m² | - |
| 1778027108 | 6.11° C | 43% | 1011.3 hPa | 0 mm | - | 56 W/m² | - |
| 1778026748 | 6.11° C | 43% | 1011.4 hPa | 0 mm | - | 152 W/m² | - |
| 1778026388 | 6.11° C | 43% | 1011.3 hPa | 0 mm | - | 73 W/m² | - |
| 1778026028 | 6.11° C | 43% | 1011.2 hPa | 0 mm | - | 82 W/m² | - |
| 1778025920 | 6.11° C | 43% | 1011.3 hPa | 0 mm | - | 86 W/m² | - |
* Rain latest hour (hover to see other rain measurements)
** Current wind speed in m/s (hover to see current wind gust speed)